Regional Weather Roundup
Issued by NWS Pendleton, OR

Home | Current Version | Previous Version | Text Only | Print | Product List | Glossary On
Versions: 1 2 3 4 5 6 7 8 9 10 11 12 13 14 15 16 17 18 19 20 21 22 23 24 25 26 27 28 29 30 31 32 33 34 35 36 37 38 39 40 41 42 43 44 45 46 47 48 49 50
000
ASUS46 KPDT 241310
RWRPDT
PENDLETON REGIONAL WEATHER ROUNDUP
NATIONAL WEATHER SERVICE PENDLETON OREGON
600 AM PDT MON JUL 24 2017

NOTE: FAIR INDICATES FEW OR NO CLOUDS BELOW 12,000 FEET WITH NO
SIGNIFICANT WEATHER AND/OR OBSTRUCTIONS TO VISIBILITY.

# INDICATES UNOFFICIAL STATION AND DATA

WAZ520-241410-
EAST SLOPES OF WASHINGTON CASCADES

CITY            SKY/WX      TMP DP  RH  WIND    PRES   REMARKS
#BULLFROG       N/A         50  48  93  CALM    N/A
#CLE ELUM HS    N/A         47  42  83  CALM    29.96R
#CLE ELUM LAKE  N/A         52  40  63  CALM    30.06R
#EASTON DOT     N/A         50  46  86  CALM    N/A
#ELK HTS DOT    N/A         53  53  100 SW2     N/A
#GLENWOOD       N/A         46  44  93  CALM    29.89R
#NELSON 3SW     N/A         47  31  53  CALM    30.11R
#NILE           N/A         48  39  71  CALM    29.23R
#TEANAWAY 4NE   N/A         45  41  86  CALM    N/A
#TROUT LAKE 1NE N/A         49  46  89  CALM    29.88R
#TROUT LAKE 1E  N/A         47  44  89  CALM    30.01R
$$

WAZ521-241410-
SIMCOE HIGHLANDS

CITY            SKY/WX      TMP DP  RH  WIND    PRES   REMARKS
#BICKLETON HS   N/A         63  42  46  N10     29.94R
#CENTERVILLE 1SWN/A         50  44  80  CALM    29.86R
#GOLDENDALE 1NE N/A         55  40  57  N5      N/A
#GOLDENDALE 4W  N/A         54  28  36  CALM    30.00R
#GOODNOE HILLS  N/A         65  53  65  NE2     N/A
#LYLE 6NE       N/A         58  53  83  CALM    29.89R
#PITT 4SE       N/A         57  51  80  CALM    29.90R
$$

WAZ026-241410-
KITTITAS VALLEY

CITY            SKY/WX      TMP DP  RH  WIND    PRES   REMARKS
ELLENSBURG AP   CLEAR       50  43  77  CALM    30.01R
#ELLENSBURG CWU N/A         52  45  77  N2      29.88R
#ELLENSBURG 3NE N/A         51  45  80  CALM    28.09R
#ELLENSBURG 1E  N/A         50  44  80  CALM    29.96R
#KITTITAS 3S    N/A         52  46  80  CALM    29.92R
#MANASTASH RDG  N/A         60  60  100 W10     N/A
#ROCKY CYN DOT  N/A         54  49  83  W7      N/A
#RYEGRASS DOT   N/A         57  43  59  E6      N/A
$$

WAZ027-241410-
YAKIMA VALLEY

CITY            SKY/WX      TMP DP  RH  WIND    PRES   REMARKS
SUNNYSIDE AP    N/A         54  48  80  CALM    29.94R
YAKIMA AIRPORT  CLEAR       60  45  58  W13     29.99R
YAKIMA-VAGABOND CLEAR       60  42  51  E9      29.98R
#DONALD 2NE     N/A         66   8  10  NW1     28.81R
#GRANDVIEW      N/A         65  43  45  CALM    29.91R
#MABTON         N/A         61  47  60  CALM    29.93R
#MOXEE 2E       N/A         60  N/A N/A NE5     29.92R
#NACHES 2SW     N/A         58  42  55  CALM    30.01R
#OUTLOOK DOT    N/A         61  45  56  CALM    29.91R
#PARKER DOT     N/A         66  41  40  S7      29.95R
#TERRACE HTS    N/A         67  42  40  CALM    29.85R
#TOPPENISH      N/A         61  45  56  CALM    29.83R
#I82 S UMTANUM RN/A         58  44  60  N8      N/A
#UNION GAP DOT  N/A         66  42  42  NW6     29.99R
#W YAKIMA       N/A         60  45  58  CALM    29.92R
#WHITE SWAN 5E  N/A         53  46  77  CALM    29.92R
#WILEY CITY 3W  N/A         49  38  66  CALM    29.97R
#ZILLAH DOT     N/A         59  46  62  CALM    N/A
$$

WAZ028-241410-
LOWER COLUMBIA BASIN...WASHINGTON

CITY            SKY/WX      TMP DP  RH  WIND    PRES   REMARKS
PASCO           PTCLDY      64  48  56  NW10    29.93R
PROSSER AWOS    N/A         55  50  83  SW5     29.97R
RICHLAND AWOS   CLEAR       72  43  35  NW13    29.93R
#BENTON CITY    N/A         71  43  36  CALM    29.80R
#CONNELL 5N     N/A         58  43  57  CALM    29.88R
#CONNELL 5NW    N/A         55  45  69  N1      29.84R
#ELTOPIA 6NW    N/A         62  50  65  CALM    28.91R
#KAHLOTUS       N/A         64  41  43  N2      29.85R
#KENNEWICK 3S   N/A         68  46  45  CALM    29.90R
#PATERSON       N/A         64  47  54  E1      29.88R
#PROSSER DOT    N/A         59  50  72  CALM    29.93R
#SAGEMOOR 2W    N/A         64  47  54  NW5     29.76R
#TOUCHET 2S     N/A         56  48  74  CALM    29.87R
#WEST PASCO     N/A         66  48  52  NW2     29.92R
$$

WAZ029-241410-
FOOTHILLS OF THE BLUES...WASHINGTON

CITY            SKY/WX      TMP DP  RH  WIND    PRES   REMARKS
WALLA WALLA AP  PTCLDY      65  47  52  S6      29.93R
#CLYDE 6NW      N/A         58  41  53  SW2     29.84R
#DAYTON SCHOOL  N/A         57  43  59  CALM    29.96R
#DELANEY DOT    N/A         62  43  50  CALM    29.91S
#LOWDEN 2SE     N/A         56  50  80  CALM    29.88R
#PLEASANT VIEW 1N/A         64  40  41  NW1     29.85R
#PRESCOTT       N/A         53  48  83  CALM    29.87R
#WHITMAN COLLEGEN/A         66  49  54  S1      29.91R
#WAITSBURG 5S   N/A         61  46  58  CALM    29.93R
#WAITSBURG 6SSE N/A         58  46  64  E3      29.89R
#WALLA WALLA 5E N/A         66  47  50  S7      N/A
#WHITMAN MISSIONN/A         59  51  75  CALM    29.89R
$$

WAZ030-241410-
BLUE MOUNTAINS...WASHINGTON

CITY            SKY/WX      TMP DP  RH  WIND    PRES   REMARKS
#DIXIE 5SE      N/A         62  43  50  S5      29.92R
$$

ORZ009-041-WAZ024-241410-
COLUMBIA RIVER GORGE

CITY            SKY/WX      TMP DP  RH  WIND    PRES   REMARKS
HOOD RIVER AP   CLEAR       55  52  90  CALM    29.96R
THE DALLES AP   CLEAR       66  56  70  NW10    29.92R
#ARLINGTON AIRPON/A         66  56  70  N3      29.89R
#CELILO DOT     N/A         69  53  57  SW3     N/A
#LYLE           N/A         64  56  75  N3      29.93R
#MARYHILL       N/A         63  53  70  N8      29.79R
#RUFUS DOT      N/A         70  N/A N/A SW3     N/A
#SMITHVILLE     N/A         65  55  70  NW10    29.91R

$$

ORZ510-241410-
NORTH CENTRAL OREGON

CITY            SKY/WX      TMP DP  RH  WIND    PRES   REMARKS
#ANTELOPE       N/A         60  45  58  N2      29.67R
#CHENOWITH 1W   N/A         57  54  90  W14     N/A
#COW CYN RST AREN/A         67  41  39  NE3     N/A
#DUFUR          N/A         50  45  83  CALM    29.86R
#DUFUR 9E       N/A         63  51  65  CALM    29.90R
#GRASS VALLEY 1SN/A         60  49  67  CALM    29.99R
#KENT DOT       N/A         62  45  54  N8      N/A
#MAUPIN SCHOOL  N/A         62  52  70  CALM    29.98R
#MORO SCHOOL    N/A         64  57  78  NW10    29.94R
#SHANIKO 5WSW   N/A         64  40  41  N14     N/A
#SHANIKO 4NW    N/A         62  44  52  NE8     30.01S
#TYGH VALLEY 2NEN/A         57  48  72  CALM    29.85R
#WAPANITIA AIRPON/A         56  49  77  CALM    29.85R
#WASCO 5NE      N/A         60  52  75  CALM    29.86R
$$

ORZ511-241410-
CENTRAL OREGON

CITY            SKY/WX      TMP DP  RH  WIND    PRES   REMARKS
BEND AIRPORT    PTCLDY      59  43  55  SW3     30.01S
MADRAS AIRPORT  PTCLDY      55  43  64  CALM    29.99R
PRINEVILLE AP   PTCLDY      54  39  57  CALM    29.99S
REDMOND AIRPORT PTCLDY      55  38  53  CALM    29.98S
#ASHWOOD SCHOOL N/A         55  40  57  CALM    29.95R
#BEND 1SW       N/A         54  40  59  CALM    N/A
#BEND-AWBREY    N/A         62  45  54  CALM    29.78S
#BEND-KIM LN    N/A         56  46  69  SW3     29.74S
#CULVER         N/A         58  45  62  CALM    29.74R
#CULVER 8W      N/A         57  43  59  CALM    29.99R
#LAKE BILLY CHINN/A         60  N/A N/A CALM    29.93R
#MADRAS 4S      N/A         56  12  17  S5      30.06
#POWELL BUTTE   N/A         65  42  43  W2      29.96S
#PRINEVILLE     N/A         55  47  74  CALM    29.87R
#PRINEVILLE 3N  N/A         56  47  72  CALM    29.88R
#WARM SPRINGS   N/A         62  44  52  CALM    29.74R

$$


ORZ509-241410-
EAST SLOPES OF OREGON CASCADES

CITY            SKY/WX      TMP DP  RH  WIND    PRES   REMARKS
SISTERS AWOS    N/A         54  46  74  CALM    29.97S
#BLUE BOX PASS  N/A         53  N/A N/A NE3     N/A
#CAMP SHERMAN   N/A         49  44  83  CALM    29.92R
#LA PINE 4NW    N/A         48  40  74  CALM    29.81S
#LAVA BUTTE DOT N/A         56  34  43  NE1     N/A
#SISTERS ODOT   N/A         53  46  77  CALM    N/A
#SISTERS 3N     N/A         50  42  74  CALM    29.93S
#SUNRIVER       N/A         52  44  74  CALM    29.95F
#TUMALO 3W      N/A         67  46  47  W1      29.66R
#WANOGA BUTTE D N/A         63  40  43  NE3     N/A

$$

ORZ044-241410-
LOWER COLUMBIA BASIN...OREGON

CITY            SKY/WX      TMP DP  RH  WIND    PRES   REMARKS
HERMISTON       PTCLDY      61  56  84  SE5     29.92R
#BOARDMAN SCHOOLN/A         59  54  83  CALM    29.91R
#BOARDMAN 8SW   N/A         67  55  65  CALM    29.89R
#ECHO 8SW       N/A         58  50  75  CALM    29.94R
#I-84 EX 198 DOTN/A         69  55  61  E2      N/A
#IONE SCHOOL    N/A         58  36  44  CALM    29.88R
#UMATILLA       N/A         66  48  52  CALM    29.82R
$$

ORZ507-241410-
NORTHERN FOOTHILLS OF THE BLUES

CITY            SKY/WX      TMP DP  RH  WIND    PRES   REMARKS
PENDLETON AIRPT MOCLDY      61  41  48  N5      29.95R
#ADAMS 3WNW     N/A         53  42  66  CALM    29.86R
#ATHENA         N/A         55  44  66  CALM    29.89R
#CAYUSE         N/A         63  50  62  E2      29.85R
#HELIX SCHOOL   N/A         53  41  64  CALM    29.86R
#HELIX 3N       N/A         61  40  46  NW1     29.94R
#HOLDMAN 6E     N/A         63  42  46  CALM    29.67R
#M-F GROVE ELEM N/A         63  44  50  CALM    29.91R
#M-FREEWATER 5SEN/A         60  47  62  CALM    29.94R
#PENDLETON DNTN N/A         60  40  47  CALM    29.92S
#PDT AQUATIC CTRN/A         59  41  51  CALM    29.93S
#PDT SUNRIDGE   N/A         56  48  74  CALM    29.96R
#PENDLETON 7NW  N/A         57  43  59  CALM    29.96R
#PILOT ROCK 1S  N/A         60  46  60  CALM    29.97R
#PILOT ROCK     N/A         60  47  62  CALM    29.99R
#TUTUILLA       N/A         54  49  83  CALM    29.98S
#UMAPINE 2E     N/A         59  50  72  CALM    29.90R
#WESTON SCHOOL  N/A         60  41  49  W1      29.88R

$$

ORZ508-241410-
SOUTHERN FOOTHILLS OF THE BLUES

CITY            SKY/WX      TMP DP  RH  WIND    PRES   REMARKS
LEXINGTON       PTCLDY      59  50  72  E6      29.99R
#AJAX           N/A         64  43  46  CALM    30.12R
#CONDON 5W      N/A         62  45  54  N7      30.00R
#FOSSIL SCHOOL  N/A         55  47  74  CALM    29.94R
#HEPPNER EOC    N/A         62  50  65  SE1     29.78S
#HEPPNER 4NE    N/A         59  50  72  CALM    29.83R
#LEXINGTON 2SE  N/A         60  51  72  SE3     29.91
#MIKKALO        N/A         59  45  60  SE1     30.07R
#OLEX 4N        N/A         61  50  67  SW5     29.92R
#RUGGS 5NE      N/A         63  50  62  CALM    30.17S
#RUGGS 2SW      N/A         60  48  64  S1      29.83S

$$

ORZ502-503-241410-
BLUE MOUNTAINS

CITY            SKY/WX      TMP DP  RH  WIND    PRES   REMARKS
MEACHAM         MOCLDY      48  44  86  CALM    30.04S
#BATTLE MTN DOT N/A         57  47  69  N2      N/A
#GRANITE        N/A         50  43  77  CALM    29.68S
#HARDMAN 10S    N/A         59  48  67  CALM    29.88R
#HEPPNER 15SE   N/A         54  46  74  CALM    29.89R
#LADD CYN SMT   N/A         62  49  62  N2      N/A
#LADD CREEK ODOTN/A         67  50  54  SW2     N/A
#LONG CREEK HS  N/A         59  46  62  CALM    N/A
#N POWDER DOT   N/A         60  54  81  NW3     N/A
#PIKES PEAK     N/A         61  43  51  N15     27.99S
#TOLLGATE       N/A         54  41  61  CALM    29.93S
#TROY SCHOOL    N/A         61  52  72  CALM    29.67R
#UKIAH          N/A         51  46  83  CALM    29.78R
#WESTON 4E      N/A         62  42  48  CALM    29.78R
$$

ORZ505-241410-
JOHN DAY BASIN

CITY            SKY/WX      TMP DP  RH  WIND    PRES   REMARKS
JOHN DAY        PTCLDY      68  47  47  CALM    30.00R
#JOHN DAY KJDY  N/A         61  N/A N/A CALM    30.68S
#DAYVILLE SCHOOLN/A         68  44  42  CALM    29.91R
#MITCHELL       N/A         61  47  60  CALM    30.16R
#MITCHELL 8NW   N/A         67  41  39  CALM    29.83
#MONUMENT HS    N/A         61  45  56  CALM    29.90R
#MT. VERNON 5SE N/A         63  46  54  CALM    29.96S
#SPRAY SCHOOL   N/A         62  N/A N/A CALM    N/A
$$

ORZ506-241410-
OCHOCO AND JOHN DAY HIGHLANDS

CITY            SKY/WX      TMP DP  RH  WIND    PRES   REMARKS
#HORSE RIDGE DO N/A         47  31  53  CALM    N/A
#IZEE 6NW       N/A         57  46  67  CALM    N/A
#PAULINA ODOT   N/A         65  45  48  CALM    N/A
#PINE MTN OBS   N/A         63  41  44  N2      N/A
#PRAIRIE CITY   N/A         57  49  75  CALM    30.12R
#SENECA         N/A         54  N/A N/A CALM    N/A
#SENECA 9NW     N/A         53  44  71  CALM    29.72S
$$

ORZ049-241410-
GRANDE RONDE VALLEY

CITY            SKY/WX      TMP DP  RH  WIND    PRES   REMARKS
LA GRANDE       CLOUDY      70  45  41  NW10    29.97R
#COVE           N/A         64  55  73  N1      30.01R
#COVE SCHOOL    N/A         63  51  65  CALM    29.99R
#COVE 6NW       N/A         61  51  70  CALM    29.83R
#ELGIN 3N       N/A         54  46  74  CALM    29.95R
#ELGIN 1E       N/A         56  47  72  CALM    N/A
#IMBLER SCHOOL  N/A         60  47  62  CALM    29.94R
#ISLAND CITY 4N N/A         51  49  93  CALM    29.98S
#LA GRANDE-LEFFEN/A         68  45  44  W9      29.98R
#UNION 1S       N/A         63  51  65  CALM    29.80R
$$

ORZ050-241410-
WALLOWA COUNTY

CITY            SKY/WX      TMP DP  RH  WIND    PRES   REMARKS
JOSEPH AIRPORT  CLOUDY      55  45  69  CALM    30.05R
#ENTERPRISE HS  N/A         54  48  80  CALM    29.70R
#IMNAHA SCHOOL  N/A         67  48  50  E1      29.92R
#IMNAHA 10S     N/A         64  47  54  S6      29.97R
#JOSEPH         N/A         59  48  67  CALM    29.98R
#JOSEPH 3N      N/A         52  45  77  CALM    30.05R
#JOSEPH 3W      N/A         59  50  72  SW2     29.90R
#LOSTINE        N/A         54  48  80  CALM    29.63R
#LOSTINE 3SE    N/A         54  45  71  CALM    30.06R
#MT HOWARD 8000 N/A         60  29  31  CALM    30.28R
#PROMISE 1S     N/A         59  47  64  CALM    29.88R
#WALLOWA LAKE   N/A         58  43  57  CALM    30.07R
#WALLOWA SCHOOL N/A         53  48  83  CALM    29.97R



$$



USA.gov is the U.S. government's official web portal to all federal, state and local government web resources and services.